Athens, TX

7:00 PM CST on January 17, 2018 (GMT -0600)
Athens

Weather History for KF44 - November, 2012

Change the Weather History Date:

Friday, November 23, 2012

  Actual Average (KTYR) Record (KTYR)
Temperature  
Mean Temperature 54 °F -  
Max Temperature 64 °F 62 °F 84 °F (1955)
Min Temperature 44 °F 43 °F 22 °F (1975)
Degree Days  
Heating Degree Days 10    
Growing Degree Days 4 (Base 50)    
Moisture  
Dew Point 41 °F    
Average Humidity 57    
Maximum Humidity 91    
Minimum Humidity 23    
Precipitation  
Precipitation 0.00 in - - ()
Sea Level Pressure  
Sea Level Pressure 30.28 in    
Wind  
Wind Speed 6 mph ()    
Max Wind Speed 21 mph    
Max Gust Speed 28 mph    
Visibility 10.0 miles    
Events Rain    
Averages and records for this station are not official NWS values.
T = Trace of Precipitation, MM = Missing Value Source: Averaged Metar Reports

Daily Weather History Graph

Daily Weather History Graph

Search for Another Location

Airport or City:

Trip Planner

Search our weather history database for the weather conditions in past years. The results will help you decide how hot, cold, wet, or windy it might be!

Date:

Astronomy

Nov. 23, 2012 Rise Set
Actual Time 6:59 AM CST 5:19 PM CST
Civil Twilight 6:33 AM CST 5:46 PM CST
Nautical Twilight 6:03 AM CST 6:15 PM CST
Astronomical Twilight 5:34 AM CST 6:45 PM CST
Moon 2:22 PM CST (11/23) 2:33 AM CST (11/23)
Length of Visible Light 11h 12m
Length of Day
10h 19m
Waxing Gibbous, 80% of the Moon is Illuminated
Nov 23
Waxing Gibbous
Nov 28
Full
Dec 6
Last Quarter
Dec 13
New
Dec 19
First Quarter

Hourly Weather History & Observations

Time (CST) Temp. Windchill Dew Point Humidity Pressure Visibility Wind Dir Wind Speed Gust Speed Precip Events Conditions
12:15 AM 61.7 °F - 54.0 °F 76% 30.12 in 10.0 mi South 6.9 mph - N/A   Clear
12:35 AM 61.2 °F - 54.0 °F 77% 30.13 in 10.0 mi South 4.6 mph - N/A   Clear
12:55 AM 60.8 °F - 54.0 °F 78% 30.13 in 10.0 mi South 4.6 mph - N/A   Clear
1:15 AM 60.3 °F - 54.0 °F 80% 30.13 in 10.0 mi South 4.6 mph - N/A   Clear
1:35 AM 59.9 °F - 54.0 °F 81% 30.14 in 10.0 mi South 4.6 mph - N/A   Clear
1:55 AM 59.4 °F - 54.0 °F 82% 30.14 in 10.0 mi South 4.6 mph - N/A   Clear
2:15 AM 59.5 °F - 54.0 °F 82% 30.14 in 10.0 mi South 3.5 mph - N/A   Clear
2:35 AM 59.2 °F - 53.8 °F 82% 30.15 in 10.0 mi Calm Calm - N/A   Scattered Clouds
2:55 AM 58.5 °F - 53.8 °F 84% 30.15 in 10.0 mi Calm Calm - N/A   Scattered Clouds
3:15 AM 58.5 °F - 53.8 °F 84% 30.15 in 10.0 mi Calm Calm - N/A   Mostly Cloudy
3:35 AM 58.8 °F - 53.8 °F 83% 30.15 in 10.0 mi Calm Calm - N/A   Overcast
3:55 AM 59.0 °F - 54.0 °F 83% 30.15 in 10.0 mi Calm Calm - N/A   Mostly Cloudy
4:15 AM 58.8 °F - 54.0 °F 84% 30.16 in 10.0 mi Calm Calm - N/A   Mostly Cloudy
4:35 AM 58.5 °F - 53.8 °F 84% 30.16 in 10.0 mi Calm Calm - N/A   Mostly Cloudy
4:55 AM 57.9 °F - 53.8 °F 86% 30.16 in 10.0 mi Calm Calm - N/A   Scattered Clouds
5:15 AM 57.2 °F - 53.4 °F 87% 30.16 in 10.0 mi Calm Calm - N/A   Mostly Cloudy
5:35 AM 57.7 °F - 53.6 °F 86% 30.17 in 10.0 mi Calm Calm - N/A   Overcast
5:55 AM 55.8 °F - 52.9 °F 90% 30.17 in 10.0 mi Calm Calm - N/A   Mostly Cloudy
6:15 AM 55.9 °F - 53.1 °F 90% 30.18 in 10.0 mi Calm Calm - N/A   Overcast
6:35 AM 55.9 °F - 53.2 °F 91% 30.20 in 10.0 mi North 10.4 mph - N/A   Overcast
6:55 AM 57.7 °F - 54.0 °F 87% 30.21 in 10.0 mi North 4.6 mph - N/A   Overcast
7:15 AM 58.6 °F - 54.0 °F 84% 30.23 in 10.0 mi North 4.6 mph - N/A   Overcast
7:35 AM 59.0 °F - 54.1 °F 84% 30.24 in 10.0 mi North 3.5 mph - N/A   Overcast
7:55 AM 59.4 °F - 54.7 °F 84% 30.24 in 10.0 mi Calm Calm - N/A   Overcast
8:15 AM 59.7 °F - 54.9 °F 84% 30.25 in 10.0 mi Calm Calm - N/A   Overcast
8:35 AM 60.8 °F - 55.0 °F 81% 30.26 in 10.0 mi NNE 5.8 mph - N/A   Overcast
8:55 AM 61.7 °F - 54.9 °F 78% 30.27 in 10.0 mi NNE 11.5 mph - N/A   Overcast
9:15 AM 61.9 °F - 54.7 °F 77% 30.28 in 10.0 mi NNE 12.7 mph 24.2 mph N/A   Overcast
9:35 AM 61.7 °F - 54.3 °F 77% 30.29 in 10.0 mi NNE 13.8 mph 23.0 mph N/A   Overcast
9:55 AM 62.4 °F - 53.6 °F 73% 30.30 in 10.0 mi North 18.4 mph 25.3 mph N/A   Overcast
10:15 AM 63.3 °F - 52.2 °F 67% 30.31 in 10.0 mi NNE 15.0 mph 24.2 mph N/A   Scattered Clouds
10:35 AM 64.2 °F - 51.3 °F 63% 30.31 in 10.0 mi NNE 19.6 mph 24.2 mph N/A   Clear
10:55 AM 64.4 °F - 50.0 °F 59% 30.32 in 10.0 mi North 16.1 mph 21.9 mph N/A   Scattered Clouds
11:15 AM 64.9 °F - 48.7 °F 56% 30.32 in 10.0 mi North 13.8 mph 25.3 mph N/A   Mostly Cloudy
11:35 AM 64.2 °F - 46.4 °F 52% 30.32 in 10.0 mi NNE 19.6 mph 24.2 mph N/A   Overcast
11:55 AM 63.1 °F - 44.2 °F 50% 30.33 in 10.0 mi North 20.7 mph 27.6 mph N/A   Overcast
12:15 PM 61.9 °F - 43.5 °F 51% 30.33 in 10.0 mi NNE 16.1 mph 21.9 mph N/A   Overcast
12:35 PM 62.2 °F - 42.3 °F 48% 30.33 in 10.0 mi NNE 15.0 mph 23.0 mph N/A   Overcast
12:55 PM 61.7 °F - 41.5 °F 48% 30.32 in 10.0 mi NNE 15.0 mph 26.5 mph N/A   Overcast
1:15 PM 61.3 °F - 39.6 °F 45% 30.32 in 10.0 mi NNE 11.5 mph 23.0 mph N/A   Overcast
1:35 PM 61.7 °F - 37.9 °F 41% 30.32 in 10.0 mi NNE 15.0 mph 20.7 mph N/A   Overcast
1:55 PM 62.4 °F - 36.7 °F 38% 30.32 in 10.0 mi NNE 10.4 mph 17.3 mph N/A   Overcast
2:15 PM 64.0 °F - 33.8 °F 32% 30.32 in 10.0 mi North 13.8 mph 19.6 mph N/A   Overcast
2:35 PM 63.9 °F - 31.1 °F 29% 30.31 in 10.0 mi North 12.7 mph 17.3 mph N/A   Overcast
2:55 PM 63.7 °F - 29.1 °F 27% 30.32 in 10.0 mi North 12.7 mph 20.7 mph N/A   Overcast
3:15 PM 63.1 °F - 29.7 °F 28% 30.32 in 10.0 mi North 9.2 mph - N/A Rain Light Rain
3:35 PM 64.2 °F - 27.1 °F 25% 30.31 in 10.0 mi NNE 10.4 mph - N/A   Overcast
3:55 PM 64.6 °F - 26.1 °F 23% 30.32 in 10.0 mi North 9.2 mph - N/A   Overcast
4:15 PM 64.6 °F - 25.5 °F 23% 30.32 in 10.0 mi North 9.2 mph - N/A   Overcast
4:35 PM 64.0 °F - 25.9 °F 24% 30.32 in 10.0 mi North 10.4 mph - N/A   Overcast
4:55 PM 63.3 °F - 27.0 °F 25% 30.32 in 10.0 mi North 15.0 mph 21.9 mph N/A   Overcast
5:15 PM 62.6 °F - 26.8 °F 26% 30.33 in 10.0 mi North 12.7 mph - N/A   Overcast
5:35 PM 61.5 °F - 27.3 °F 27% 30.33 in 10.0 mi North 10.4 mph - N/A   Overcast
5:55 PM 60.8 °F - 27.3 °F 28% 30.34 in 10.0 mi North 10.4 mph - N/A   Overcast
6:15 PM 59.5 °F - 26.8 °F 29% 30.35 in 10.0 mi North 10.4 mph - N/A   Mostly Cloudy
6:35 PM 58.5 °F - 26.1 °F 29% 30.36 in 10.0 mi North 10.4 mph - N/A   Overcast
6:55 PM 57.7 °F - 24.6 °F 28% 30.37 in 10.0 mi North 8.1 mph - N/A   Mostly Cloudy
7:15 PM 56.3 °F - 24.6 °F 29% 30.37 in 10.0 mi North 4.6 mph - N/A   Scattered Clouds
7:35 PM 55.0 °F - 24.6 °F 31% 30.38 in 10.0 mi North 5.8 mph - N/A   Clear
7:55 PM 53.8 °F - 25.0 °F 33% 30.38 in 10.0 mi North 5.8 mph - N/A   Clear
8:15 PM 52.9 °F - 24.8 °F 34% 30.39 in 10.0 mi North 5.8 mph - N/A   Clear
8:35 PM 52.3 °F - 24.8 °F 34% 30.39 in 10.0 mi North 5.8 mph - N/A   Clear
8:55 PM 51.3 °F - 24.8 °F 36% 30.39 in 10.0 mi North 4.6 mph - N/A   Clear
9:15 PM 50.9 °F - 24.8 °F 36% 30.39 in 10.0 mi North 5.8 mph - N/A   Clear
9:35 PM 50.2 °F - 24.8 °F 37% 30.39 in 10.0 mi North 5.8 mph - N/A   Clear
9:55 PM 49.6 °F - 24.8 °F 38% 30.39 in 10.0 mi North 4.6 mph - N/A   Clear
10:15 PM 48.7 °F - 24.8 °F 39% 30.39 in 10.0 mi North 4.6 mph - N/A   Clear
10:35 PM 47.1 °F - 25.3 °F 43% 30.39 in 10.0 mi North 4.6 mph - N/A   Clear
10:55 PM 47.1 °F - 25.2 °F 42% 30.39 in 10.0 mi Calm Calm - N/A   Clear
11:15 PM 45.9 °F - 25.5 °F 45% 30.40 in 10.0 mi Calm Calm - N/A   Clear
11:35 PM 45.3 °F - 25.3 °F 46% 30.41 in 10.0 mi Calm Calm - N/A   Clear
11:55 PM 44.8 °F 43.3 °F 25.2 °F 46% 30.41 in 10.0 mi North 3.5 mph - N/A   Clear